UAL1499 KEWR-KFLL

Flight info

Callsign UAL1499
Flight time 2h 42m
Altitude 38000
Route ELVAE NECCK WHITE Q409 CRPLR KOOKI Q161 CHIEZ Y291 MAJIK CUUDA3
Aircraft B752/M-SDE2E3FGHIJ3J4J7RWXY/LB1

Departure

Time 2026-04-25 22:57
Airport Newark Liberty International Airport (KEWR)

Arrival

Time 2026-04-26 01:39
Airport Fort Lauderdale Hollywood International Airport (KFLL)
Time Latitude Longitude Altitude Speed Heading
2026-04-25 21:43 40.69444 -74.17226 30 ft 0 kts 232°
2026-04-25 22:45 40.69447 -74.17221 29 ft 2 kts 237°
2026-04-25 22:46 40.69454 -74.17203 30 ft 2 kts 243°
2026-04-25 22:46 40.69461 -74.17187 29 ft 2 kts 239°
2026-04-25 22:46 40.69466 -74.17175 30 ft 1 kts 240°
2026-04-25 22:46 40.69476 -74.17160 29 ft 2 kts 205°
2026-04-25 22:47 40.69490 -74.17158 30 ft 1 kts 161°
2026-04-25 22:47 40.69494 -74.17159 30 ft 1 kts 151°
2026-04-25 22:47 40.69472 -74.17155 29 ft 3 kts 164°
2026-04-25 22:47 40.69453 -74.17145 30 ft 0 kts 162°
2026-04-25 22:51 40.69450 -74.17144 29 ft 1 kts 162°
2026-04-25 22:51 40.69440 -74.17130 29 ft 3 kts 105°
2026-04-25 22:51 40.69428 -74.17074 29 ft 8 kts 146°
2026-04-25 22:52 40.69363 -74.17069 29 ft 11 kts 202°
2026-04-25 22:52 40.69275 -74.17122 29 ft 16 kts 205°
2026-04-25 22:52 40.69162 -74.17192 29 ft 19 kts 205°
2026-04-25 22:52 40.69041 -74.17271 29 ft 18 kts 206°
2026-04-25 22:53 40.68928 -74.17340 29 ft 17 kts 204°
2026-04-25 22:53 40.68824 -74.17408 30 ft 16 kts 206°
2026-04-25 22:53 40.68722 -74.17473 29 ft 16 kts 205°
2026-04-25 22:53 40.68612 -74.17542 29 ft 18 kts 205°
2026-04-25 22:54 40.68492 -74.17617 29 ft 19 kts 206°
2026-04-25 22:54 40.68364 -74.17701 29 ft 21 kts 206°
2026-04-25 22:54 40.68232 -74.17783 29 ft 21 kts 205°
2026-04-25 22:54 40.68099 -74.17867 29 ft 20 kts 207°
2026-04-25 22:55 40.67970 -74.17950 29 ft 20 kts 206°
2026-04-25 22:55 40.67842 -74.18030 29 ft 20 kts 205°
2026-04-25 22:55 40.67715 -74.18111 29 ft 20 kts 205°
2026-04-25 22:55 40.67635 -74.18104 29 ft 11 kts 133°
2026-04-25 22:56 40.67598 -74.18046 29 ft 6 kts 128°
2026-04-25 22:56 40.67560 -74.17975 29 ft 12 kts 121°
2026-04-25 22:56 40.67608 -74.17895 29 ft 16 kts 18°
2026-04-25 22:56 40.67795 -74.17779 29 ft 56 kts 26°
2026-04-25 22:57 40.68376 -74.17413 30 ft 126 kts 26°
2026-04-25 22:57 40.69355 -74.16824 223 ft 172 kts 29°
2026-04-25 22:57 40.70386 -74.15971 979 ft 182 kts 45°
2026-04-25 22:57 40.71275 -74.14796 1632 ft 187 kts 48°
2026-04-25 22:58 40.72280 -74.13522 1890 ft 215 kts 47°
2026-04-25 22:58 40.73448 -74.12109 2398 ft 234 kts 46°
2026-04-25 22:58 40.74769 -74.10839 3006 ft 246 kts 28°
2026-04-25 22:58 40.76444 -74.10426 3011 ft 248 kts 356°
2026-04-25 22:59 40.78061 -74.11201 3014 ft 252 kts 324°
2026-04-25 22:59 40.79186 -74.12950 3020 ft 256 kts 293°
2026-04-25 22:59 40.79611 -74.15224 3016 ft 249 kts 275°
2026-04-25 22:59 40.79819 -74.17504 3009 ft 254 kts 276°
2026-04-25 23:00 40.80038 -74.19804 2999 ft 250 kts 273°
2026-04-25 23:00 40.79842 -74.22003 3012 ft 238 kts 243°
2026-04-25 23:00 40.78849 -74.23683 3050 ft 238 kts 211°
2026-04-25 23:00 40.77235 -74.24412 3381 ft 253 kts 178°
2026-04-25 23:01 40.75601 -74.23993 4569 ft 241 kts 163°
2026-04-25 23:01 40.73921 -74.23712 5349 ft 251 kts 186°
2026-04-25 23:01 40.72272 -74.24343 6333 ft 251 kts 198°
2026-04-25 23:01 40.70654 -74.25120 7228 ft 252 kts 198°
2026-04-25 23:02 40.69019 -74.25883 8104 ft 253 kts 198°
2026-04-25 23:02 40.67331 -74.26645 8939 ft 256 kts 198°
2026-04-25 23:02 40.65655 -74.27373 9798 ft 257 kts 198°
2026-04-25 23:02 40.63951 -74.28079 10483 ft 264 kts 195°
2026-04-25 23:03 40.62033 -74.28298 10724 ft 291 kts 178°
2026-04-25 23:03 40.59948 -74.28053 10921 ft 316 kts 178°
2026-04-25 23:03 40.57727 -74.27873 11635 ft 324 kts 180°
2026-04-25 23:03 40.55492 -74.27694 12515 ft 328 kts 176°
2026-04-25 23:04 40.53268 -74.26939 13341 ft 336 kts 164°
2026-04-25 23:04 40.51073 -74.25844 14187 ft 339 kts 164°
2026-04-25 23:04 40.48846 -74.24747 14996 ft 343 kts 164°
2026-04-25 23:04 40.46642 -74.23656 15787 ft 346 kts 164°
2026-04-25 23:05 40.44381 -74.22537 16558 ft 349 kts 164°
2026-04-25 23:05 40.42090 -74.21403 17313 ft 352 kts 164°
2026-04-25 23:05 40.39795 -74.20267 18038 ft 355 kts 164°
2026-04-25 23:05 40.37477 -74.19119 18751 ft 358 kts 164°
2026-04-25 23:06 40.35148 -74.17966 19437 ft 361 kts 164°
2026-04-25 23:06 40.32788 -74.16904 20088 ft 361 kts 171°
2026-04-25 23:06 40.30336 -74.16586 20724 ft 357 kts 186°
2026-04-25 23:06 40.27882 -74.17068 21355 ft 357 kts 194°
2026-04-25 23:07 40.25435 -74.17776 21981 ft 360 kts 194°
2026-04-25 23:07 40.23025 -74.18475 22576 ft 362 kts 194°
2026-04-25 23:07 40.20540 -74.19207 23159 ft 365 kts 194°
2026-04-25 23:07 40.18086 -74.19935 23725 ft 367 kts 194°
2026-04-25 23:08 40.15559 -74.20687 24270 ft 370 kts 194°
2026-04-25 23:08 40.13047 -74.21437 24804 ft 373 kts 194°
2026-04-25 23:08 40.10522 -74.22191 25319 ft 375 kts 194°
2026-04-25 23:08 40.07988 -74.22947 25821 ft 377 kts 194°
2026-04-25 23:09 40.05441 -74.23708 26292 ft 380 kts 194°
2026-04-25 23:09 40.02851 -74.24520 26773 ft 382 kts 198°
2026-04-25 23:09 40.00387 -74.25807 27223 ft 383 kts 207°
2026-04-25 23:09 39.98152 -74.27653 27645 ft 387 kts 214°
2026-04-25 23:10 39.95967 -74.29705 28073 ft 389 kts 214°
2026-04-25 23:10 39.93765 -74.31773 28510 ft 391 kts 214°
2026-04-25 23:10 39.91542 -74.33872 28894 ft 393 kts 214°
2026-04-25 23:10 39.89345 -74.35951 29302 ft 395 kts 214°
2026-04-25 23:11 39.87095 -74.38084 29689 ft 398 kts 214°
2026-04-25 23:11 39.84860 -74.40202 30088 ft 400 kts 214°
2026-04-25 23:11 39.82627 -74.42338 30462 ft 402 kts 216°
2026-04-25 23:11 39.80549 -74.44798 30811 ft 407 kts 223°
2026-04-25 23:12 39.78543 -74.47455 31189 ft 409 kts 223°
2026-04-25 23:12 39.76565 -74.50062 31520 ft 411 kts 223°
2026-04-25 23:12 39.74558 -74.52713 32014 ft 409 kts 223°
2026-04-25 23:12 39.72565 -74.55347 32489 ft 407 kts 222°
2026-04-25 23:13 39.70584 -74.57965 32931 ft 406 kts 222°
2026-04-25 23:13 39.68635 -74.60541 33399 ft 404 kts 222°
2026-04-25 23:13 39.66662 -74.63148 33772 ft 403 kts 222°
2026-04-25 23:13 39.64688 -74.65752 34208 ft 401 kts 221°
2026-04-25 23:14 39.62758 -74.68298 34592 ft 400 kts 221°
2026-04-25 23:14 39.60786 -74.70895 34961 ft 400 kts 221°
2026-04-25 23:14 39.58864 -74.73428 35293 ft 399 kts 221°
2026-04-25 23:14 39.56897 -74.76015 35609 ft 399 kts 221°
2026-04-25 23:15 39.54976 -74.78542 35928 ft 398 kts 221°
2026-04-25 23:15 39.53033 -74.81094 36227 ft 397 kts 221°
2026-04-25 23:15 39.51077 -74.83662 36463 ft 397 kts 221°
2026-04-25 23:15 39.49159 -74.86178 36674 ft 397 kts 221°
2026-04-25 23:16 39.47209 -74.88732 36856 ft 398 kts 221°
2026-04-25 23:16 39.45264 -74.91280 37132 ft 396 kts 221°
2026-04-25 23:16 39.43339 -74.93799 37306 ft 396 kts 221°
2026-04-25 23:16 39.41413 -74.96317 37525 ft 394 kts 221°
2026-04-25 23:17 39.39478 -74.98845 37742 ft 393 kts 221°
2026-04-25 23:17 39.37570 -75.01334 37909 ft 392 kts 221°
2026-04-25 23:17 39.33741 -75.06325 38006 ft 390 kts 221°
2026-04-25 23:18 39.29934 -75.11259 38004 ft 387 kts 220°
2026-04-25 23:18 39.25977 -75.15904 37999 ft 385 kts 219°
2026-04-25 23:19 39.22004 -75.20548 37994 ft 386 kts 219°
2026-04-25 23:19 39.18052 -75.25163 37988 ft 386 kts 219°
2026-04-25 23:20 39.14058 -75.29822 37980 ft 386 kts 219°
2026-04-25 23:20 39.10080 -75.34455 37974 ft 386 kts 219°
2026-04-25 23:21 39.06105 -75.39077 37970 ft 386 kts 219°
2026-04-25 23:21 39.01767 -75.42995 37978 ft 383 kts 204°
2026-04-25 23:22 38.96600 -75.44638 37971 ft 389 kts 191°
2026-04-25 23:23 38.88540 -75.45894 37975 ft 393 kts 190°
2026-04-25 23:23 38.83070 -75.46680 37979 ft 398 kts 190°
2026-04-25 23:24 38.77552 -75.47453 37976 ft 402 kts 190°
2026-04-25 23:24 38.71973 -75.48226 37974 ft 404 kts 190°
2026-04-25 23:25 38.66404 -75.48985 37968 ft 404 kts 190°
2026-04-25 23:25 38.60817 -75.49744 37967 ft 406 kts 190°
2026-04-25 23:25 38.58016 -75.50124 38113 ft 405 kts 190°
2026-04-25 23:26 38.55203 -75.50506 38236 ft 405 kts 190°
2026-04-25 23:26 38.52439 -75.50879 38564 ft 399 kts 190°
2026-04-25 23:26 38.49683 -75.51252 38730 ft 398 kts 190°
2026-04-25 23:27 38.44210 -75.51994 38852 ft 399 kts 190°
2026-04-25 23:27 38.41465 -75.52364 38968 ft 397 kts 190°
2026-04-25 23:27 38.38726 -75.52732 39274 ft 392 kts 190°
2026-04-25 23:28 38.33483 -75.54321 39306 ft 388 kts 206°
2026-04-25 23:28 38.28901 -75.57886 39395 ft 387 kts 214°
2026-04-25 23:29 38.24437 -75.61694 39495 ft 387 kts 214°
2026-04-25 23:29 38.20000 -75.65524 39583 ft 387 kts 214°
2026-04-25 23:30 38.15562 -75.69369 39662 ft 387 kts 214°
2026-04-25 23:30 38.11099 -75.73237 39756 ft 387 kts 214°
2026-04-25 23:31 38.06678 -75.77066 39819 ft 387 kts 214°
2026-04-25 23:31 38.02256 -75.80891 39810 ft 387 kts 214°
2026-04-25 23:32 37.97809 -75.84733 39847 ft 387 kts 214°
2026-04-25 23:32 37.93356 -75.88576 39895 ft 387 kts 214°
2026-04-25 23:33 37.88906 -75.92408 39907 ft 386 kts 214°
2026-04-25 23:33 37.84478 -75.96217 39910 ft 386 kts 214°
2026-04-25 23:34 37.80051 -76.00019 39905 ft 385 kts 214°
2026-04-25 23:34 37.75642 -76.03800 39896 ft 385 kts 214°
2026-04-25 23:35 37.71205 -76.07600 39893 ft 385 kts 214°
2026-04-25 23:35 37.66788 -76.11377 39895 ft 384 kts 214°
2026-04-25 23:36 37.62363 -76.15124 39897 ft 383 kts 211°
2026-04-25 23:36 37.57397 -76.17544 39901 ft 385 kts 198°
2026-04-25 23:37 37.52233 -76.19259 39889 ft 385 kts 198°
2026-04-25 23:37 37.47076 -76.20934 39880 ft 384 kts 197°
2026-04-25 23:38 37.41897 -76.22599 39869 ft 384 kts 197°
2026-04-25 23:38 37.36762 -76.24240 39863 ft 383 kts 197°
2026-04-25 23:39 37.31574 -76.25893 39853 ft 385 kts 197°
2026-04-25 23:39 37.26396 -76.27540 39840 ft 387 kts 197°
2026-04-25 23:40 37.21181 -76.29195 39838 ft 389 kts 197°
2026-04-25 23:40 37.15920 -76.30863 39836 ft 389 kts 197°
2026-04-25 23:41 37.10705 -76.32513 39836 ft 390 kts 197°
2026-04-25 23:41 37.05429 -76.34181 39837 ft 392 kts 197°
2026-04-25 23:42 37.00146 -76.35848 39842 ft 393 kts 197°
2026-04-25 23:42 36.94855 -76.37517 39844 ft 395 kts 197°
2026-04-25 23:43 36.89523 -76.39195 39845 ft 396 kts 197°
2026-04-25 23:43 36.84172 -76.40877 39849 ft 399 kts 197°
2026-04-25 23:44 36.78803 -76.42561 39837 ft 401 kts 197°
2026-04-25 23:44 36.73397 -76.44254 39839 ft 401 kts 197°
2026-04-25 23:45 36.68034 -76.45932 39841 ft 401 kts 198°
2026-04-25 23:45 36.62623 -76.47623 39843 ft 400 kts 197°
2026-04-25 23:46 36.57246 -76.49300 39844 ft 400 kts 197°
2026-04-25 23:46 36.51823 -76.50990 39845 ft 400 kts 198°
2026-04-25 23:47 36.46431 -76.52667 39847 ft 401 kts 197°
2026-04-25 23:47 36.41027 -76.54346 39843 ft 401 kts 197°
2026-04-25 23:48 36.35641 -76.56017 39841 ft 401 kts 198°
2026-04-25 23:48 36.30275 -76.57679 39837 ft 400 kts 197°
2026-04-25 23:49 36.24869 -76.59351 39834 ft 400 kts 197°
2026-04-25 23:49 36.19515 -76.61005 39832 ft 400 kts 198°
2026-04-25 23:50 36.14105 -76.62673 39833 ft 401 kts 197°
2026-04-25 23:50 36.08696 -76.64339 39835 ft 401 kts 197°
2026-04-25 23:51 36.03303 -76.65998 39842 ft 401 kts 197°
2026-04-25 23:51 35.97924 -76.67650 39841 ft 401 kts 197°
2026-04-25 23:52 35.92489 -76.69319 39839 ft 401 kts 198°
2026-04-25 23:52 35.87424 -76.71896 39853 ft 397 kts 208°
2026-04-25 23:53 35.82462 -76.74895 39850 ft 397 kts 208°
2026-04-25 23:53 35.77517 -76.77901 39853 ft 397 kts 207°
2026-04-25 23:54 35.72560 -76.80916 39853 ft 397 kts 208°
2026-04-25 23:54 35.67660 -76.83897 39856 ft 395 kts 208°
2026-04-25 23:55 35.62725 -76.86894 39855 ft 395 kts 208°
2026-04-25 23:55 35.57818 -76.89874 39855 ft 394 kts 208°
2026-04-25 23:56 35.52935 -76.92872 39853 ft 393 kts 208°
2026-04-25 23:56 35.48068 -76.95856 39852 ft 392 kts 208°
2026-04-25 23:57 35.43199 -76.98838 39850 ft 391 kts 208°
2026-04-25 23:57 35.38374 -77.01788 39852 ft 390 kts 208°
2026-04-25 23:58 35.33505 -77.04761 39851 ft 389 kts 209°
2026-04-25 23:58 35.28685 -77.07701 39853 ft 390 kts 209°
2026-04-25 23:59 35.23819 -77.10666 39860 ft 389 kts 209°
2026-04-25 23:59 35.19014 -77.13588 39866 ft 389 kts 209°
2026-04-26 00:00 35.14844 -77.16121 39866 ft 390 kts 209°
2026-04-26 00:00 35.10575 -77.18711 39863 ft 389 kts 209°
2026-04-26 00:01 35.05753 -77.21633 39866 ft 390 kts 209°
2026-04-26 00:01 35.00930 -77.24552 39862 ft 390 kts 209°
2026-04-26 00:02 34.96042 -77.27505 39866 ft 393 kts 209°
2026-04-26 00:02 34.91156 -77.30456 39868 ft 395 kts 210°
2026-04-26 00:03 34.86212 -77.33435 39880 ft 398 kts 210°
2026-04-26 00:03 34.81234 -77.36432 39882 ft 401 kts 210°
2026-04-26 00:04 34.76221 -77.39445 39878 ft 405 kts 210°
2026-04-26 00:04 34.71165 -77.42481 39882 ft 407 kts 210°
2026-04-26 00:05 34.66117 -77.45507 39876 ft 408 kts 210°
2026-04-26 00:05 34.61026 -77.48555 39876 ft 408 kts 210°
2026-04-26 00:06 34.55943 -77.51593 39875 ft 407 kts 210°
2026-04-26 00:06 34.50712 -77.54163 39887 ft 414 kts 197°
2026-04-26 00:07 34.45045 -77.55505 39875 ft 415 kts 195°
2026-04-26 00:07 34.39390 -77.56785 39875 ft 416 kts 195°
2026-04-26 00:08 34.33702 -77.58051 39877 ft 416 kts 195°
2026-04-26 00:08 34.28059 -77.59298 39870 ft 410 kts 195°
2026-04-26 00:09 34.22499 -77.60524 39884 ft 408 kts 195°
2026-04-26 00:09 34.16921 -77.61751 39882 ft 409 kts 195°
2026-04-26 00:10 34.11312 -77.62983 39881 ft 409 kts 195°
2026-04-26 00:10 34.05744 -77.64204 39880 ft 410 kts 195°
2026-04-26 00:11 34.00152 -77.65429 39889 ft 409 kts 194°
2026-04-26 00:11 33.94540 -77.66656 39892 ft 410 kts 194°
2026-04-26 00:12 33.88963 -77.67873 39890 ft 409 kts 194°
2026-04-26 00:12 33.83389 -77.69089 39894 ft 409 kts 195°
2026-04-26 00:13 33.77797 -77.70307 39894 ft 410 kts 194°
2026-04-26 00:13 33.72212 -77.71522 39895 ft 410 kts 194°
2026-04-26 00:14 33.66603 -77.72823 39896 ft 407 kts 199°
2026-04-26 00:14 33.61187 -77.74676 39891 ft 406 kts 199°
2026-04-26 00:15 33.55780 -77.76472 39894 ft 406 kts 199°
2026-04-26 00:15 33.50356 -77.78254 39891 ft 407 kts 199°
2026-04-26 00:16 33.44893 -77.80039 39889 ft 407 kts 199°
2026-04-26 00:16 33.39424 -77.81822 39891 ft 408 kts 199°
2026-04-26 00:17 33.33971 -77.83595 39892 ft 407 kts 199°
2026-04-26 00:17 33.28542 -77.85359 39891 ft 406 kts 199°
2026-04-26 00:18 33.23092 -77.87128 39891 ft 408 kts 199°
2026-04-26 00:18 33.17640 -77.88895 39887 ft 407 kts 199°
2026-04-26 00:19 33.12219 -77.90649 39889 ft 406 kts 199°
2026-04-26 00:19 33.06772 -77.92407 39890 ft 405 kts 199°
2026-04-26 00:20 33.01370 -77.94210 39887 ft 402 kts 201°
2026-04-26 00:20 32.96051 -77.96033 39886 ft 401 kts 201°
2026-04-26 00:21 32.90685 -77.97871 39886 ft 404 kts 201°
2026-04-26 00:21 32.85241 -77.99731 39894 ft 408 kts 201°
2026-04-26 00:22 32.79810 -78.01585 39894 ft 411 kts 201°
2026-04-26 00:22 32.74292 -78.03465 39894 ft 414 kts 201°
2026-04-26 00:23 32.68760 -78.05347 39893 ft 417 kts 201°
2026-04-26 00:23 32.63183 -78.07242 39892 ft 418 kts 201°
2026-04-26 00:24 32.57625 -78.09128 39892 ft 418 kts 201°
2026-04-26 00:24 32.52054 -78.11015 39893 ft 418 kts 201°
2026-04-26 00:25 32.46495 -78.12897 39893 ft 418 kts 201°
2026-04-26 00:25 32.40931 -78.14778 39893 ft 418 kts 201°
2026-04-26 00:26 32.35358 -78.16660 39893 ft 418 kts 201°
2026-04-26 00:26 32.29769 -78.18544 39893 ft 418 kts 201°
2026-04-26 00:27 32.24220 -78.20412 39893 ft 418 kts 201°
2026-04-26 00:27 32.18646 -78.22288 39894 ft 418 kts 201°
2026-04-26 00:28 32.13074 -78.24159 39893 ft 418 kts 201°
2026-04-26 00:28 32.07506 -78.26027 39892 ft 418 kts 201°
2026-04-26 00:29 32.01931 -78.27895 39892 ft 418 kts 201°
2026-04-26 00:29 31.96366 -78.29757 39891 ft 418 kts 201°
2026-04-26 00:30 31.90798 -78.31619 39890 ft 418 kts 201°
2026-04-26 00:30 31.85225 -78.33478 39898 ft 418 kts 201°
2026-04-26 00:31 31.79618 -78.35347 39897 ft 417 kts 201°
2026-04-26 00:31 31.74080 -78.37190 39897 ft 418 kts 201°
2026-04-26 00:32 31.68506 -78.39044 39896 ft 418 kts 201°
2026-04-26 00:32 31.60118 -78.41829 39895 ft 418 kts 201°
2026-04-26 00:33 31.54558 -78.43672 39894 ft 418 kts 201°
2026-04-26 00:33 31.48974 -78.45500 39893 ft 418 kts 201°
2026-04-26 00:34 31.43413 -78.47306 39893 ft 418 kts 201°
2026-04-26 00:34 31.37805 -78.49125 39892 ft 418 kts 201°
2026-04-26 00:35 31.32227 -78.50932 39892 ft 418 kts 201°
2026-04-26 00:35 31.26653 -78.52736 39891 ft 419 kts 201°
2026-04-26 00:36 31.21062 -78.54542 39890 ft 418 kts 201°
2026-04-26 00:36 31.15476 -78.56346 39889 ft 418 kts 201°
2026-04-26 00:37 31.09890 -78.58147 39889 ft 418 kts 201°
2026-04-26 00:37 31.04284 -78.59952 39888 ft 418 kts 201°
2026-04-26 00:38 30.98690 -78.61749 39886 ft 416 kts 201°
2026-04-26 00:38 30.93141 -78.63532 39886 ft 414 kts 201°
2026-04-26 00:39 30.87627 -78.65300 39900 ft 412 kts 201°
2026-04-26 00:39 30.82119 -78.67066 39907 ft 413 kts 201°
2026-04-26 00:40 30.76607 -78.68831 39906 ft 412 kts 201°
2026-04-26 00:40 30.71114 -78.70587 39905 ft 412 kts 201°
2026-04-26 00:41 30.65595 -78.72349 39904 ft 412 kts 201°
2026-04-26 00:41 30.60077 -78.74109 39904 ft 412 kts 201°
2026-04-26 00:42 30.54570 -78.75863 39903 ft 412 kts 201°
2026-04-26 00:42 30.49047 -78.77621 39911 ft 412 kts 201°
2026-04-26 00:43 30.43522 -78.79376 39920 ft 412 kts 201°
2026-04-26 00:43 30.38003 -78.81128 39927 ft 411 kts 201°
2026-04-26 00:44 30.32544 -78.82857 39926 ft 406 kts 201°
2026-04-26 00:44 30.27125 -78.84575 39927 ft 407 kts 201°
2026-04-26 00:45 30.21675 -78.86298 39926 ft 407 kts 201°
2026-04-26 00:45 30.16238 -78.88017 39924 ft 407 kts 201°
2026-04-26 00:46 30.10793 -78.89736 39923 ft 407 kts 201°
2026-04-26 00:46 30.05367 -78.91447 39921 ft 407 kts 201°
2026-04-26 00:47 29.99918 -78.93163 39919 ft 407 kts 201°
2026-04-26 00:47 29.94491 -78.94872 39915 ft 407 kts 201°
2026-04-26 00:48 29.89044 -78.96584 39917 ft 407 kts 202°
2026-04-26 00:48 29.83592 -78.98294 39921 ft 407 kts 202°
2026-04-26 00:49 29.78033 -78.99669 39923 ft 413 kts 196°
2026-04-26 00:49 29.72381 -79.00727 39919 ft 413 kts 197°
2026-04-26 00:50 29.66711 -79.01781 39918 ft 414 kts 197°
2026-04-26 00:50 29.61010 -79.02836 39918 ft 414 kts 197°
2026-04-26 00:51 29.55324 -79.03886 39917 ft 415 kts 197°
2026-04-26 00:51 29.49668 -79.04927 39917 ft 415 kts 197°
2026-04-26 00:52 29.43936 -79.05982 39916 ft 415 kts 197°
2026-04-26 00:52 29.38264 -79.07025 39915 ft 416 kts 197°
2026-04-26 00:53 29.32574 -79.08070 39915 ft 416 kts 197°
2026-04-26 00:53 29.26861 -79.09117 39915 ft 416 kts 197°
2026-04-26 00:54 29.21152 -79.10162 39914 ft 416 kts 197°
2026-04-26 00:54 29.15465 -79.11203 39913 ft 417 kts 197°
2026-04-26 00:55 29.09751 -79.12247 39912 ft 417 kts 197°
2026-04-26 00:55 29.04011 -79.13296 39912 ft 419 kts 197°
2026-04-26 00:56 28.98237 -79.14349 39912 ft 420 kts 197°
2026-04-26 00:56 28.92483 -79.15396 39911 ft 421 kts 197°
2026-04-26 00:57 28.86713 -79.16446 39917 ft 421 kts 197°
2026-04-26 00:57 28.80946 -79.17493 39916 ft 420 kts 197°
2026-04-26 00:58 28.75197 -79.18537 39916 ft 420 kts 197°
2026-04-26 00:58 28.69429 -79.19583 39915 ft 420 kts 197°
2026-04-26 00:59 28.63678 -79.20624 39915 ft 420 kts 197°
2026-04-26 00:59 28.57923 -79.21666 39914 ft 420 kts 197°
2026-04-26 01:00 28.52139 -79.22711 39914 ft 420 kts 197°
2026-04-26 01:00 28.46388 -79.23749 39913 ft 420 kts 197°
2026-04-26 01:01 28.40613 -79.24791 39913 ft 420 kts 197°
2026-04-26 01:01 28.34873 -79.25825 39912 ft 420 kts 197°
2026-04-26 01:02 28.29201 -79.27179 39921 ft 412 kts 205°
2026-04-26 01:02 28.23742 -79.29047 39922 ft 413 kts 204°
2026-04-26 01:03 28.18232 -79.30866 39931 ft 413 kts 204°
2026-04-26 01:03 28.12715 -79.32667 39868 ft 415 kts 204°
2026-04-26 01:04 28.09935 -79.33571 39593 ft 416 kts 204°
2026-04-26 01:04 28.07177 -79.34463 39318 ft 414 kts 204°
2026-04-26 01:04 28.04419 -79.35358 38824 ft 416 kts 204°
2026-04-26 01:04 28.01641 -79.36256 38311 ft 415 kts 204°
2026-04-26 01:05 27.98888 -79.37146 37799 ft 413 kts 204°
2026-04-26 01:05 27.96130 -79.38037 37286 ft 413 kts 204°
2026-04-26 01:05 27.93384 -79.38925 36775 ft 414 kts 204°
2026-04-26 01:05 27.90614 -79.39819 36259 ft 414 kts 204°
2026-04-26 01:06 27.87859 -79.40708 35753 ft 414 kts 204°
2026-04-26 01:06 27.85072 -79.41606 35243 ft 415 kts 204°
2026-04-26 01:06 27.82312 -79.42496 34740 ft 417 kts 204°
2026-04-26 01:06 27.79534 -79.43391 34235 ft 418 kts 204°
2026-04-26 01:07 27.76743 -79.44289 33728 ft 419 kts 204°
2026-04-26 01:07 27.73927 -79.45196 33218 ft 422 kts 204°
2026-04-26 01:07 27.71099 -79.46106 32750 ft 424 kts 203°
2026-04-26 01:07 27.68270 -79.47014 32366 ft 425 kts 203°
2026-04-26 01:08 27.65435 -79.47926 31984 ft 428 kts 203°
2026-04-26 01:08 27.62596 -79.48836 31600 ft 427 kts 203°
2026-04-26 01:08 27.59735 -79.49752 31236 ft 423 kts 203°
2026-04-26 01:08 27.56939 -79.50647 30975 ft 421 kts 203°
2026-04-26 01:09 27.54126 -79.51550 30713 ft 421 kts 203°
2026-04-26 01:09 27.51319 -79.52449 30451 ft 420 kts 203°
2026-04-26 01:09 27.48500 -79.53351 30186 ft 419 kts 203°
2026-04-26 01:09 27.45726 -79.54238 29924 ft 418 kts 203°
2026-04-26 01:10 27.42946 -79.55127 29728 ft 416 kts 203°
2026-04-26 01:10 27.40165 -79.56014 29564 ft 416 kts 202°
2026-04-26 01:10 27.37401 -79.56887 29402 ft 416 kts 202°
2026-04-26 01:10 27.34599 -79.57770 29235 ft 415 kts 202°
2026-04-26 01:11 27.31846 -79.58638 29072 ft 414 kts 202°
2026-04-26 01:11 27.29075 -79.59511 28906 ft 414 kts 202°
2026-04-26 01:11 27.26340 -79.60371 28737 ft 407 kts 202°
2026-04-26 01:11 27.23651 -79.61214 28473 ft 398 kts 202°
2026-04-26 01:12 27.21010 -79.62045 28207 ft 395 kts 202°
2026-04-26 01:12 27.18347 -79.62888 27940 ft 395 kts 202°
2026-04-26 01:12 27.15733 -79.63727 27676 ft 394 kts 202°
2026-04-26 01:12 27.13096 -79.64572 27406 ft 393 kts 202°
2026-04-26 01:13 27.10449 -79.65421 26980 ft 394 kts 202°
2026-04-26 01:13 27.07854 -79.66250 26537 ft 391 kts 202°
2026-04-26 01:13 27.05254 -79.67080 26089 ft 387 kts 202°
2026-04-26 01:13 27.02655 -79.67911 25640 ft 387 kts 202°
2026-04-26 01:14 27.00069 -79.68740 25193 ft 388 kts 201°
2026-04-26 01:14 26.97493 -79.69563 24749 ft 389 kts 201°
2026-04-26 01:14 26.94884 -79.70397 24180 ft 391 kts 200°
2026-04-26 01:14 26.92270 -79.71231 23555 ft 390 kts 200°
2026-04-26 01:15 26.89667 -79.72061 22943 ft 388 kts 199°
2026-04-26 01:15 26.87091 -79.72881 22395 ft 385 kts 199°
2026-04-26 01:15 26.84549 -79.73690 21851 ft 382 kts 199°
2026-04-26 01:15 26.81996 -79.74503 21300 ft 379 kts 199°
2026-04-26 01:16 26.79471 -79.75301 20693 ft 375 kts 199°
2026-04-26 01:16 26.77014 -79.76077 20006 ft 373 kts 198°
2026-04-26 01:16 26.74512 -79.76867 19297 ft 369 kts 198°
2026-04-26 01:16 26.72083 -79.77633 18599 ft 363 kts 198°
2026-04-26 01:17 26.69698 -79.78397 17903 ft 357 kts 199°
2026-04-26 01:17 26.67365 -79.79320 17198 ft 351 kts 203°
2026-04-26 01:17 26.65114 -79.80265 16502 ft 347 kts 202°
2026-04-26 01:17 26.62868 -79.81191 15798 ft 342 kts 202°
2026-04-26 01:18 26.60663 -79.82097 15098 ft 337 kts 201°
2026-04-26 01:18 26.58490 -79.82985 14399 ft 332 kts 201°
2026-04-26 01:18 26.56357 -79.83856 13704 ft 328 kts 201°
2026-04-26 01:18 26.54254 -79.84772 13006 ft 325 kts 204°
2026-04-26 01:19 26.52185 -79.85756 12303 ft 321 kts 204°
2026-04-26 01:19 26.50151 -79.86716 11606 ft 319 kts 203°
2026-04-26 01:19 26.48124 -79.87669 10906 ft 316 kts 203°
2026-04-26 01:19 26.46118 -79.88612 10211 ft 313 kts 203°
2026-04-26 01:20 26.44127 -79.89547 9580 ft 308 kts 203°
2026-04-26 01:20 26.42172 -79.90465 8987 ft 303 kts 203°
2026-04-26 01:20 26.40218 -79.91383 8587 ft 301 kts 203°
2026-04-26 01:20 26.38339 -79.92295 8336 ft 295 kts 207°
2026-04-26 01:21 26.36567 -79.93400 8077 ft 284 kts 211°
2026-04-26 01:21 26.34870 -79.94494 7958 ft 277 kts 210°
2026-04-26 01:21 26.33210 -79.95560 7964 ft 279 kts 210°
2026-04-26 01:21 26.31523 -79.96642 7962 ft 279 kts 210°
2026-04-26 01:22 26.29825 -79.97732 7965 ft 279 kts 210°
2026-04-26 01:22 26.28145 -79.98810 7965 ft 279 kts 210°
2026-04-26 01:22 26.26469 -79.99886 7965 ft 279 kts 210°
2026-04-26 01:22 26.24779 -80.00972 7965 ft 279 kts 210°
2026-04-26 01:23 26.23095 -80.02055 7965 ft 279 kts 210°
2026-04-26 01:23 26.21426 -80.03127 7964 ft 279 kts 210°
2026-04-26 01:23 26.19736 -80.04213 7963 ft 279 kts 211°
2026-04-26 01:23 26.18288 -80.05612 7971 ft 279 kts 235°
2026-04-26 01:24 26.17435 -80.07576 7975 ft 280 kts 250°
2026-04-26 01:24 26.16791 -80.09613 7960 ft 279 kts 250°
2026-04-26 01:24 26.16150 -80.11658 7960 ft 279 kts 250°
2026-04-26 01:24 26.15522 -80.13696 7922 ft 280 kts 251°
2026-04-26 01:25 26.15084 -80.15805 7824 ft 279 kts 266°
2026-04-26 01:25 26.15058 -80.17947 7732 ft 280 kts 269°
2026-04-26 01:25 26.15057 -80.20122 7630 ft 279 kts 269°
2026-04-26 01:25 26.15058 -80.22283 7506 ft 277 kts 269°
2026-04-26 01:26 26.15064 -80.24406 7313 ft 270 kts 269°
2026-04-26 01:26 26.15070 -80.26466 7210 ft 266 kts 269°
2026-04-26 01:26 26.15078 -80.28532 7160 ft 267 kts 269°
2026-04-26 01:26 26.15085 -80.30589 7109 ft 267 kts 269°
2026-04-26 01:27 26.15093 -80.32662 7062 ft 267 kts 269°
2026-04-26 01:27 26.15096 -80.34731 7010 ft 267 kts 269°
2026-04-26 01:27 26.15069 -80.36807 6960 ft 266 kts 268°
2026-04-26 01:27 26.15041 -80.38872 6954 ft 266 kts 268°
2026-04-26 01:28 26.15015 -80.40923 6953 ft 267 kts 268°
2026-04-26 01:28 26.14989 -80.42971 6947 ft 259 kts 268°
2026-04-26 01:28 26.14964 -80.44909 6942 ft 245 kts 268°
2026-04-26 01:28 26.14942 -80.46759 6924 ft 234 kts 268°
2026-04-26 01:29 26.14920 -80.48569 6874 ft 233 kts 268°
2026-04-26 01:29 26.14898 -80.50380 6822 ft 233 kts 268°
2026-04-26 01:29 26.14877 -80.52185 6771 ft 233 kts 268°
2026-04-26 01:29 26.14855 -80.53990 6718 ft 233 kts 268°
2026-04-26 01:30 26.14835 -80.55786 6588 ft 234 kts 268°
2026-04-26 01:30 26.14613 -80.57553 6436 ft 228 kts 246°
2026-04-26 01:30 26.13666 -80.58873 6340 ft 214 kts 213°
2026-04-26 01:30 26.12289 -80.59325 6205 ft 207 kts 178°
2026-04-26 01:31 26.10959 -80.58784 6078 ft 209 kts 142°
2026-04-26 01:31 26.10021 -80.57545 5952 ft 210 kts 126°
2026-04-26 01:31 26.09269 -80.56150 5799 ft 210 kts 114°
2026-04-26 01:31 26.08738 -80.54649 5653 ft 209 kts 114°
2026-04-26 01:32 26.08170 -80.53149 5501 ft 209 kts 114°
2026-04-26 01:32 26.07862 -80.51581 5353 ft 210 kts 93°
2026-04-26 01:32 26.07859 -80.49963 5209 ft 210 kts 91°
2026-04-26 01:32 26.07850 -80.48338 5089 ft 208 kts 92°
2026-04-26 01:33 26.07841 -80.46725 4960 ft 210 kts 92°
2026-04-26 01:33 26.07834 -80.45125 4801 ft 203 kts 92°
2026-04-26 01:33 26.07828 -80.43572 4641 ft 197 kts 92°
2026-04-26 01:33 26.07823 -80.42043 4456 ft 198 kts 92°
2026-04-26 01:34 26.07816 -80.40527 4215 ft 197 kts 92°
2026-04-26 01:34 26.07807 -80.38992 3965 ft 195 kts 92°
2026-04-26 01:34 26.07799 -80.37503 3718 ft 194 kts 92°
2026-04-26 01:34 26.07791 -80.35992 3464 ft 193 kts 92°
2026-04-26 01:35 26.07784 -80.34491 3207 ft 193 kts 92°
2026-04-26 01:35 26.07777 -80.33025 2981 ft 184 kts 92°
2026-04-26 01:35 26.07774 -80.31655 2726 ft 171 kts 92°
2026-04-26 01:35 26.07771 -80.30360 2484 ft 163 kts 92°
2026-04-26 01:36 26.07763 -80.29127 2282 ft 153 kts 93°
2026-04-26 01:36 26.07758 -80.27998 2058 ft 141 kts 93°
2026-04-26 01:36 26.07752 -80.26921 1865 ft 139 kts 93°
2026-04-26 01:37 26.07739 -80.24796 1518 ft 135 kts 93°
2026-04-26 01:37 26.07735 -80.23760 1325 ft 132 kts 93°
2026-04-26 01:37 26.07730 -80.22737 1146 ft 132 kts 93°
2026-04-26 01:37 26.07723 -80.21718 966 ft 132 kts 93°
2026-04-26 01:38 26.07719 -80.20949 833 ft 132 kts 93°
2026-04-26 01:38 26.07715 -80.19943 668 ft 131 kts 93°
2026-04-26 01:38 26.07709 -80.18928 492 ft 130 kts 93°
2026-04-26 01:38 26.07711 -80.17923 299 ft 129 kts 93°
2026-04-26 01:39 26.07701 -80.16937 135 ft 126 kts 92°
2026-04-26 01:39 26.07691 -80.15968 15 ft 117 kts 92°
2026-04-26 01:39 26.07687 -80.15288 14 ft 62 kts 91°
2026-04-26 01:39 26.07681 -80.14883 14 ft 46 kts 93°
2026-04-26 01:40 26.07634 -80.14603 14 ft 7 kts 117°
2026-04-26 01:40 26.07612 -80.14558 14 ft 6 kts 118°
2026-04-26 01:40 26.07581 -80.14526 13 ft 7 kts 156°
2026-04-26 01:40 26.07525 -80.14512 13 ft 9 kts 176°
2026-04-26 01:41 26.07490 -80.14459 14 ft 10 kts 105°
2026-04-26 01:41 26.07486 -80.14371 14 ft 11 kts 89°
2026-04-26 01:41 26.07486 -80.14297 14 ft 8 kts 90°
2026-04-26 01:41 26.07484 -80.14229 14 ft 8 kts 116°
2026-04-26 01:42 26.07437 -80.14194 13 ft 8 kts 170°
2026-04-26 01:42 26.07372 -80.14193 13 ft 9 kts 181°
2026-04-26 01:42 26.07309 -80.14188 13 ft 6 kts 134°
2026-04-26 01:42 26.07296 -80.14148 14 ft 2 kts 93°
2026-04-26 01:43 26.07295 -80.14136 13 ft 1 kts 94°
2026-04-26 01:43 26.07295 -80.14129 14 ft 0 kts 94°